Flag for U.S.A. Weather past 2 weeks in Manhattan, Kansas, U.S.A.

Now
66 °F

Light rain. Mostly cloudy.


Feels Like: 66 °F
Forecast: 57 / 72 °F
Wind: 12 mph from East

Location: Manhattan Municipal Airport

Current Time: Sep 23, 2014 at 6:16:59 PM

Latest Report: Sep 23, 2014 at 4:52 PM


Visibility: 7 mi

Pressure: 30.07 "Hg

Humidity: 81%

Dew point: 60 °F

Location of ManhattanLocation

Historic Weather in Manhattan — Graph

°F

Manhattan temperature yesterday

Maximum temperature yesterday: 76 °F (at 2:52 PM)
Minimum temperature yesterday: 44 °F (at 5:52 AM)
Average temperature yesterday: 61 °F

Past Weeks' High & Low Weather Summary

 TemperatureHumidityPressure
High97 °F (Sep 9, 3:52 PM)100% (Sep 13, 3:59 AM)30.45 "Hg (Sep 13, 3:59 AM)
Low36 °F (Sep 13, 3:59 AM)25% (Sep 21, 3:52 PM)29.49 "Hg (Sep 9, 9:52 PM)
Average66 °F75%30.06 "Hg
* Reported Sep 8 4:52 PM — Sep 23 4:52 PM, Manhattan, Weather by CustomWeather, © 2014

Note: Actual official high and low records may vary slightly from our data, if they occured in-between our weather recording intervals... More about our weather records

Advertising

Manhattan weather history for previous 24 hours

 ConditionsComfort  
Time TempWeatherWind HumidityBarometerVisibility
4:52 PM
Sep 23
66 °FLight rain. Mostly cloudy.12 mph81%30.07 "Hg7 mi
3:52 PM71 °FLight rain. Overcast.8 mph66%30.07 "Hg10 mi
2:52 PM75 °FOvercast.12 mph54%30.09 "Hg10 mi
1:52 PM71 °FMostly cloudy.10 mph61%30.11 "Hg10 mi
12:52 PM70 °FOvercast.17 mph64%30.12 "Hg10 mi
11:52 AM66 °FScattered clouds.6 mph75%30.15 "Hg10 mi
10:52 AM65 °FPartly sunny.12 mph76%30.16 "Hg10 mi
9:52 AM61 °FOvercast.9 mph83%30.15 "Hg10 mi
8:52 AM61 °FLight rain. Partly sunny.8 mph78%30.17 "Hg10 mi
7:52 AM60 °FPassing clouds.6 mph78%30.17 "Hg10 mi
6:52 AM58 °FClear.5 mph84%30.20 "Hg10 mi
5:52 AM61 °FPassing clouds.5 mph75%30.17 "Hg10 mi
4:52 AM61 °FClear.No wind75%30.15 "Hg10 mi
3:52 AM61 °FClear.6 mph75%30.14 "Hg10 mi
2:52 AM61 °FClear.3 mph75%30.14 "Hg10 mi
1:52 AM60 °FClear.3 mph75%30.16 "Hg10 mi
12:52 AM60 °FClear.3 mph75%30.17 "Hg10 mi
11:52 PM
Sep 22
59 °FClear.No wind75%30.18 "Hg10 mi
10:52 PM62 °FClear.3 mph67%30.19 "Hg10 mi
9:52 PM63 °FClear.No wind68%30.20 "Hg10 mi
8:52 PM64 °FClear.6 mph65%30.19 "Hg10 mi
7:52 PM66 °FSunny.3 mph59%30.18 "Hg10 mi
6:52 PM70 °FSunny.6 mph49%30.18 "Hg10 mi
Weather by CustomWeather, © 2014

See weather overviewHow to use our weather pages